Time,TemperatureF,DewpointF,PressureIn,WindDirection,WindDirectionDegrees,WindSpeedMPH,WindSpeedGustMPH,Humidity,HourlyPrecipIn,Conditions,Clouds,dailyrainin,SoftwareType,DateUTC
2013-03-08 00:11:00,55.6,43.0,30.01,SE,144,2.0,8.0,62,0.00,,,0.00,weatherlink.com 1.10,2013-03-08 07:11:00,
2013-03-08 00:26:00,55.0,43.0,30.01,SE,127,2.0,7.0,64,0.00,,,0.00,weatherlink.com 1.10,2013-03-08 07:26:00,
2013-03-08 00:41:00,54.8,43.0,30.00,SE,126,0.0,7.0,65,0.00,,,0.00,weatherlink.com 1.10,2013-03-08 07:41:00,
2013-03-08 00:56:00,54.4,43.0,30.00,SE,129,0.0,8.0,66,0.00,,,0.00,weatherlink.com 1.10,2013-03-08 07:56:00,
2013-03-08 01:11:00,54.3,43.0,30.01,SE,130,4.0,6.0,67,0.00,,,0.00,weatherlink.com 1.10,2013-03-08 08:11:00,
2013-03-08 01:26:00,54.5,44.0,30.00,SE,144,6.0,8.0,67,0.00,,,0.00,weatherlink.com 1.10,2013-03-08 08:26:00,
2013-03-08 01:41:00,55.0,44.0,29.99,SE,133,3.0,10.0,66,0.00,,,0.00,weatherlink.com 1.10,2013-03-08 08:41:00,
2013-03-08 01:56:00,55.0,44.0,29.99,SE,136,5.0,12.0,66,0.00,,,0.00,weatherlink.com 1.10,2013-03-08 08:56:00,
2013-03-08 02:11:00,54.8,44.0,29.99,SE,142,6.0,10.0,67,0.00,,,0.00,weatherlink.com 1.10,2013-03-08 09:11:00,
2013-03-08 02:26:00,54.2,44.0,29.98,SSE,147,5.0,10.0,68,0.00,,,0.00,weatherlink.com 1.10,2013-03-08 09:26:00,
2013-03-08 02:41:00,53.9,44.0,29.98,SSE,149,6.0,12.0,69,0.00,,,0.00,weatherlink.com 1.10,2013-03-08 09:41:00,
2013-03-08 02:57:00,53.9,44.0,29.97,SE,126,5.0,9.0,70,0.00,,,0.00,weatherlink.com 1.10,2013-03-08 09:57:00,
2013-03-08 03:12:00,53.8,44.0,29.97,SSE,159,7.0,11.0,70,0.00,,,0.00,weatherlink.com 1.10,2013-03-08 10:12:00,
2013-03-08 03:27:00,53.6,44.0,29.98,SE,139,4.0,9.0,71,0.00,,,0.00,weatherlink.com 1.10,2013-03-08 10:27:00,
2013-03-08 03:42:00,53.6,45.0,29.97,SE,145,7.0,9.0,73,0.00,,,0.00,weatherlink.com 1.10,2013-03-08 10:42:00,
2013-03-08 03:57:00,53.9,45.0,29.98,South,176,4.0,9.0,72,0.00,,,0.00,weatherlink.com 1.10,2013-03-08 10:57:00,
2013-03-08 04:12:00,54.0,46.0,29.98,SSE,154,4.0,11.0,73,0.00,,,0.00,weatherlink.com 1.10,2013-03-08 11:12:00,
2013-03-08 04:27:00,54.4,46.0,29.98,SSE,163,6.0,10.0,74,0.00,,,0.00,weatherlink.com 1.10,2013-03-08 11:27:00,
2013-03-08 04:42:00,54.3,47.0,29.98,SSE,153,9.0,11.0,75,0.00,,,0.00,weatherlink.com 1.10,2013-03-08 11:42:00,
2013-03-08 04:57:00,54.2,47.0,29.98,SE,138,3.0,11.0,76,0.00,,,0.00,weatherlink.com 1.10,2013-03-08 11:57:00,
2013-03-08 05:12:00,53.9,47.0,29.99,SSE,160,9.0,12.0,77,0.00,,,0.00,weatherlink.com 1.10,2013-03-08 12:12:00,
2013-03-08 05:27:00,53.7,47.0,29.99,SSE,162,5.0,12.0,78,0.00,,,0.00,weatherlink.com 1.10,2013-03-08 12:27:00,
2013-03-08 05:42:00,53.7,47.0,29.99,SE,146,6.0,11.0,79,0.00,,,0.00,weatherlink.com 1.10,2013-03-08 12:42:00,
2013-03-08 05:57:00,53.8,48.0,29.98,SE,138,9.0,13.0,80,0.00,,,0.00,weatherlink.com 1.10,2013-03-08 12:57:00,
2013-03-08 06:12:00,53.9,48.0,29.98,SSE,153,8.0,12.0,80,0.00,,,0.00,weatherlink.com 1.10,2013-03-08 13:12:00,
2013-03-08 06:27:00,54.1,48.0,29.99,SE,146,6.0,12.0,81,0.00,,,0.00,weatherlink.com 1.10,2013-03-08 13:27:00,
2013-03-08 06:42:00,54.1,48.0,29.99,SSE,157,6.0,12.0,81,0.00,,,0.00,weatherlink.com 1.10,2013-03-08 13:42:00,
2013-03-08 06:57:00,54.4,49.0,29.99,SE,137,4.0,13.0,81,0.00,,,0.00,weatherlink.com 1.10,2013-03-08 13:57:00,
2013-03-08 07:12:00,54.9,49.0,30.00,SSE,148,12.0,13.0,81,0.00,,,0.00,weatherlink.com 1.10,2013-03-08 14:12:00,
2013-03-08 07:27:00,55.2,50.0,30.00,SSE,166,3.0,15.0,81,0.00,,,0.00,weatherlink.com 1.10,2013-03-08 14:27:00,
2013-03-08 07:42:00,55.7,50.0,30.01,South,172,4.0,13.0,81,0.00,,,0.00,weatherlink.com 1.10,2013-03-08 14:42:00,
2013-03-08 07:57:00,56.1,50.0,30.01,SSE,158,8.0,17.0,81,0.00,,,0.00,weatherlink.com 1.10,2013-03-08 14:57:00,
2013-03-08 08:12:00,56.5,51.0,30.00,SSE,153,8.0,19.0,81,0.00,,,0.00,weatherlink.com 1.10,2013-03-08 15:12:00,
2013-03-08 08:27:00,56.9,51.0,30.00,South,170,5.0,16.0,81,0.00,,,0.00,weatherlink.com 1.10,2013-03-08 15:27:00,
2013-03-08 08:42:00,57.3,52.0,30.00,SSE,158,11.0,19.0,81,0.00,,,0.00,weatherlink.com 1.10,2013-03-08 15:42:00,
2013-03-08 08:57:00,57.6,52.0,29.99,South,173,8.0,18.0,81,0.00,,,0.00,weatherlink.com 1.10,2013-03-08 15:57:00,
2013-03-08 09:12:00,58.1,52.0,29.99,South,185,7.0,19.0,81,0.00,,,0.00,weatherlink.com 1.10,2013-03-08 16:12:00,
2013-03-08 09:27:00,58.7,53.0,29.99,SE,135,4.0,19.0,82,0.00,,,0.00,weatherlink.com 1.10,2013-03-08 16:27:00,
2013-03-08 09:42:00,59.1,54.0,29.98,South,175,5.0,19.0,82,0.00,,,0.00,weatherlink.com 1.10,2013-03-08 16:42:00,
2013-03-08 09:57:00,58.9,54.0,29.98,SSE,150,8.0,19.0,83,0.00,,,0.00,weatherlink.com 1.10,2013-03-08 16:57:00,
2013-03-08 10:12:00,58.8,54.0,29.97,SE,141,6.0,21.0,84,0.00,,,0.00,weatherlink.com 1.10,2013-03-08 17:12:00,
2013-03-08 10:27:00,58.8,54.0,29.98,SE,141,10.0,21.0,84,0.00,,,0.00,weatherlink.com 1.10,2013-03-08 17:27:00,
2013-03-08 10:42:00,59.0,55.0,29.98,SSE,168,8.0,17.0,85,0.00,,,0.00,weatherlink.com 1.10,2013-03-08 17:42:00,
2013-03-08 10:57:00,59.1,55.0,29.97,SSE,148,10.0,19.0,85,0.00,,,0.00,weatherlink.com 1.10,2013-03-08 17:57:00,
2013-03-08 11:12:00,58.9,54.0,29.96,SE,141,8.0,20.0,85,0.00,,,0.00,weatherlink.com 1.10,2013-03-08 18:12:00,
2013-03-08 11:27:00,58.8,54.0,29.95,SE,139,5.0,15.0,85,0.00,,,0.00,weatherlink.com 1.10,2013-03-08 18:27:00,
2013-03-08 11:42:00,59.1,54.0,29.95,SE,129,9.0,16.0,84,0.00,,,0.00,weatherlink.com 1.10,2013-03-08 18:42:00,
2013-03-08 11:57:00,59.6,55.0,29.95,ESE,122,12.0,22.0,84,0.00,,,0.00,weatherlink.com 1.10,2013-03-08 18:57:00,
2013-03-08 12:12:00,60.0,55.0,29.94,SSE,160,14.0,21.0,83,0.00,,,0.00,weatherlink.com 1.10,2013-03-08 19:12:00,
2013-03-08 12:27:00,60.5,55.0,29.93,SE,133,6.0,21.0,82,0.00,,,0.00,weatherlink.com 1.10,2013-03-08 19:27:00,
2013-03-08 12:42:00,60.4,55.0,29.92,South,176,12.0,24.0,82,0.00,,,0.00,weatherlink.com 1.10,2013-03-08 19:42:00,
2013-03-08 12:57:00,60.5,55.0,29.91,SE,138,9.0,22.0,81,0.00,,,0.00,weatherlink.com 1.10,2013-03-08 19:57:00,
2013-03-08 13:12:00,60.7,55.0,29.90,SE,134,6.0,20.0,81,0.00,,,0.00,weatherlink.com 1.10,2013-03-08 20:12:00,
2013-03-08 13:28:00,60.6,55.0,29.89,SSE,152,20.0,25.0,81,0.00,,,0.00,weatherlink.com 1.10,2013-03-08 20:28:00,
2013-03-08 13:43:00,60.8,55.0,29.89,SSE,149,14.0,22.0,81,0.00,,,0.00,weatherlink.com 1.10,2013-03-08 20:43:00,
2013-03-08 13:58:00,60.9,55.0,29.89,SSE,151,12.0,23.0,82,0.00,,,0.00,weatherlink.com 1.10,2013-03-08 20:58:00,
2013-03-08 14:13:00,61.3,55.0,29.88,South,174,11.0,23.0,81,0.00,,,0.00,weatherlink.com 1.10,2013-03-08 21:13:00,
2013-03-08 14:28:00,62.0,56.0,29.87,SE,146,10.0,21.0,80,0.00,,,0.00,weatherlink.com 1.10,2013-03-08 21:28:00,
2013-03-08 14:43:00,62.0,56.0,29.87,SE,142,14.0,25.0,80,0.00,,,0.00,weatherlink.com 1.10,2013-03-08 21:43:00,
2013-03-08 14:58:00,62.2,56.0,29.86,SE,145,8.0,20.0,80,0.00,,,0.00,weatherlink.com 1.10,2013-03-08 21:58:00,
2013-03-08 15:13:00,63.1,56.0,29.85,SE,137,7.0,21.0,78,0.00,,,0.00,weatherlink.com 1.10,2013-03-08 22:13:00,
2013-03-08 15:28:00,63.3,56.0,29.85,SSE,149,13.0,23.0,78,0.00,,,0.00,weatherlink.com 1.10,2013-03-08 22:28:00,
2013-03-08 15:43:00,65.3,58.0,29.84,South,170,16.0,21.0,76,0.00,,,0.00,weatherlink.com 1.10,2013-03-08 22:43:00,
2013-03-08 15:58:00,65.4,57.0,29.84,SE,145,6.0,19.0,75,0.00,,,0.00,weatherlink.com 1.10,2013-03-08 22:58:00,
2013-03-08 16:13:00,65.4,57.0,29.85,SSE,152,17.0,19.0,75,0.00,,,0.00,weatherlink.com 1.10,2013-03-08 23:13:00,
2013-03-08 16:28:00,64.6,57.0,29.85,South,174,7.0,22.0,76,0.00,,,0.00,weatherlink.com 1.10,2013-03-08 23:28:00,
2013-03-08 16:43:00,64.2,57.0,29.84,SSE,151,11.0,24.0,77,0.00,,,0.00,weatherlink.com 1.10,2013-03-08 23:43:00,
2013-03-08 16:58:00,63.9,57.0,29.85,SSE,151,15.0,22.0,77,0.00,,,0.00,weatherlink.com 1.10,2013-03-08 23:58:00,
2013-03-08 17:13:00,63.5,57.0,29.84,SSE,162,9.0,22.0,78,0.00,,,0.00,weatherlink.com 1.10,2013-03-09 00:13:00,
2013-03-08 17:28:00,62.6,56.0,29.86,SE,143,16.0,24.0,79,0.00,,,0.00,weatherlink.com 1.10,2013-03-09 00:28:00,
2013-03-08 17:43:00,62.1,56.0,29.85,SSE,154,11.0,20.0,81,0.00,,,0.00,weatherlink.com 1.10,2013-03-09 00:43:00,
2013-03-08 17:58:00,61.4,56.0,29.84,SE,145,10.0,26.0,82,0.00,,,0.00,weatherlink.com 1.10,2013-03-09 00:58:00,
2013-03-08 18:13:00,61.3,56.0,29.84,SE,135,15.0,23.0,83,0.00,,,0.00,weatherlink.com 1.10,2013-03-09 01:13:00,
2013-03-08 18:28:00,61.2,56.0,29.84,SE,139,7.0,22.0,83,0.00,,,0.00,weatherlink.com 1.10,2013-03-09 01:28:00,
2013-03-08 18:43:00,61.2,56.0,29.84,SSE,150,8.0,22.0,83,0.00,,,0.00,weatherlink.com 1.10,2013-03-09 01:43:00,
2013-03-08 18:58:00,61.0,56.0,29.85,SSE,154,11.0,21.0,83,0.00,,,0.00,weatherlink.com 1.10,2013-03-09 01:58:00,
2013-03-08 19:13:00,60.9,56.0,29.83,SE,140,19.0,23.0,84,0.00,,,0.00,weatherlink.com 1.10,2013-03-09 02:13:00,
2013-03-08 19:28:00,60.6,56.0,29.82,SE,142,12.0,23.0,84,0.00,,,0.00,weatherlink.com 1.10,2013-03-09 02:28:00,
2013-03-08 19:58:00,60.3,56.0,29.79,South,177,17.0,29.0,85,0.00,,,0.00,weatherlink.com 1.10,2013-03-09 02:58:00,
2013-03-08 20:13:00,60.2,56.0,29.80,SSE,158,14.0,24.0,85,0.00,,,0.00,weatherlink.com 1.10,2013-03-09 03:13:00,
2013-03-08 20:28:00,59.8,56.0,29.80,South,172,13.0,23.0,86,0.00,,,0.00,weatherlink.com 1.10,2013-03-09 03:28:00,
2013-03-08 20:43:00,59.7,56.0,29.80,SSE,154,14.0,21.0,87,0.00,,,0.00,weatherlink.com 1.10,2013-03-09 03:43:00,
2013-03-08 21:13:00,60.4,56.0,29.81,SSE,161,9.0,19.0,86,0.00,,,0.00,weatherlink.com 1.10,2013-03-09 04:13:00,
2013-03-08 21:28:00,60.8,57.0,29.82,South,172,9.0,20.0,86,0.00,,,0.00,weatherlink.com 1.10,2013-03-09 04:28:00,
2013-03-08 21:43:00,61.3,57.0,29.82,SSE,164,7.0,19.0,86,0.00,,,0.00,weatherlink.com 1.10,2013-03-09 04:43:00,
2013-03-08 21:58:00,61.7,57.0,29.81,SSE,163,13.0,17.0,85,0.00,,,0.00,weatherlink.com 1.10,2013-03-09 04:58:00,
2013-03-08 22:13:00,62.0,58.0,29.82,South,175,10.0,17.0,85,0.00,,,0.00,weatherlink.com 1.10,2013-03-09 05:13:00,
2013-03-08 22:28:00,62.0,58.0,29.81,South,187,10.0,20.0,85,0.00,,,0.00,weatherlink.com 1.10,2013-03-09 05:28:00,
2013-03-08 22:43:00,62.0,58.0,29.80,SSE,168,9.0,19.0,85,0.00,,,0.00,weatherlink.com 1.10,2013-03-09 05:43:00,
2013-03-08 22:58:00,61.9,57.0,29.80,South,190,9.0,17.0,85,0.00,,,0.00,weatherlink.com 1.10,2013-03-09 05:58:00,
2013-03-08 23:13:00,61.9,57.0,29.80,South,173,7.0,16.0,85,0.00,,,0.00,weatherlink.com 1.10,2013-03-09 06:13:00,
2013-03-08 23:28:00,61.9,58.0,29.80,SSE,166,5.0,15.0,86,0.00,,,0.00,weatherlink.com 1.10,2013-03-09 06:28:00,
2013-03-08 23:43:00,61.9,58.0,29.79,South,171,3.0,11.0,86,0.00,,,0.00,weatherlink.com 1.10,2013-03-09 06:43:00,